Tracking 30696 objects as of 15-Jun-2025
HD Live streaming from Space Station
objects crossing your sky now

COSMOS 1275 DEB

Track COSMOS 1275 DEB now!
10-day predictions


NORAD ID: 42102
Int'l Code: 1981-053PN
Perigee: 888.8 km
Apogee: 996.0 km
Inclination: 83.0 °
Period: 103.7 minutes
Semi major axis: 7313 km
RCS: Unknown
Launch date: June 4, 1981
Source: Commonwealth of Independent States (former USSR) (CIS)
Launch site: PLESETSK MISSILE AND SPACE COMPLEX (PKMTR)

Note: This is SATELLITE DEBRIS
Your satellite tracking list
Your tracking list is empty




NASA's NSSDC Master Catalog

Two Line Element Set (TLE):
1 42102U 81053PN  25165.72171662  .00001689  00000-0  13746-2 0  9994
2 42102  83.0106 328.8528 0073324 232.1966 127.2545 13.88111636583597
Source of the keplerian elements: AFSPC